Tracking 18945 objects as of 21-Jan-2018
HD Live streaming from Space Station
objects crossing your sky now

FENGYUN 1C DEB

Track FENGYUN 1C DEB now!
10-day predictions


NORAD ID: 37412
Int'l Code: 1999-025EGE
Perigee: 785.4 km
Apogee: 821.0 km
Inclination: 99.0 °
Period: 100.8 minutes
Semi major axis: 7174 km
RCS: 0.011 m2 (small)
Launch date: May 10, 1999
Source: People's Republic of China (PRC)
Launch site: Taiyaun Space Center, China (TSC)

Note: This is SATELLITE DEBRIS
aabbcc
Your satellite tracking list
Your tracking list is empty




NASA's NSSDC Master Catalog

Two Line Element Set (TLE):
1 37412U 99025EGE 18010.04844064  .00001204  00000-0  49538-3 0  9991
2 37412  98.9519 107.6583 0024770 182.4306 177.6758 14.28709207433713
Source of the keplerian elements: AFSPC